Weather History for Truth Or Consequences, NM

Change the Weather History Date:

Tuesday, July 23, 2013

  Actual Average Record
Temperature  
Mean Temperature 82 °F -  
Max Temperature 95 °F 91 °F 100 °F (2003)
Min Temperature 68 °F 68 °F 63 °F (1999)
Cooling Degree Days 17    
Month to date cooling degree days  
Year to date cooling degree days  
Since 1 June cooling degree days  
Growing Degree Days 32 (Base 50)    
Moisture  
Dew Point 57 °F    
Average Humidity 49    
Maximum Humidity 78    
Minimum Humidity 20    
Precipitation  
Precipitation 0.00 in - 1.17 in (2010)
Month to date precipitation 1.28  
Year to date precipitation 1.63  
Sea Level Pressure  
Sea Level Pressure 29.81 in    
Wind  
Wind Speed 6 mph (SSE)    
Max Wind Speed 14 mph    
Max Gust Speed 23 mph    
Visibility 10 miles    
Events Thunderstorm    
T = Trace of Precipitation, MM = Missing Value Source: NWS Daily Summary

Daily Weather History Graph

Daily Weather History Graph

Search for Another Location

Airport:

Trip Planner

Search our weather history database for the weather conditions in past years. The results will help you decide how hot, cold, wet, or windy it might be!

Date:

Astronomy

Jul. 23, 2013 Rise Set
Actual Time 6:16 AM MDT 8:14 PM MDT
Civil Twilight 5:48 AM MDT 8:42 PM MDT
Nautical Twilight 5:14 AM MDT 9:15 PM MDT
Astronomical Twilight 4:38 AM MDT 9:51 PM MDT
Moon 8:53 PM MDT (7/23) 7:21 AM MDT (7/23)
Length of Visible Light 14h 53m
Length of Day
13h 58m
Full, 99% of the Moon is Illuminated
Jul 23
Full
Jul 29
Last Quarter
Aug 6
New
Aug 14
First Quarter
Aug 20
Full

Hourly Weather History & Observations

Time (MDT) Temp. Heat Index Dew Point Humidity Pressure Visibility Wind Dir Wind Speed Gust Speed Precip Events Conditions
12:53 AM 77.0 °F - 51.1 °F 40% 29.80 in 10.0 mi North 4.6 mph - N/A   Clear
1:53 AM 72.0 °F - 61.0 °F 68% 29.79 in 10.0 mi SSE 8.1 mph - N/A   Clear
2:53 AM 71.1 °F - 61.0 °F 70% 29.79 in 10.0 mi South 8.1 mph - N/A   Clear
3:53 AM 69.1 °F - 61.0 °F 75% 29.79 in 10.0 mi ESE 3.5 mph - N/A   Partly Cloudy
4:53 AM 68.0 °F - 61.0 °F 78% 29.79 in 10.0 mi Calm Calm - N/A   Clear
5:53 AM 68.0 °F - 60.1 °F 76% 29.80 in 10.0 mi Calm Calm - N/A   Clear
6:53 AM 68.0 °F - 61.0 °F 78% 29.83 in 10.0 mi NNE 3.5 mph - N/A   Clear
7:53 AM 70.0 °F - 62.1 °F 76% 29.84 in 10.0 mi Calm Calm - N/A   Scattered Clouds
8:53 AM 75.9 °F - 61.0 °F 60% 29.84 in 10.0 mi Calm Calm - N/A   Clear
9:53 AM 78.1 °F - 59.0 °F 52% 29.83 in 10.0 mi Variable 3.5 mph - N/A   Clear
10:53 AM 82.9 °F 82.4 °F 57.0 °F 41% 29.83 in 10.0 mi Variable 4.6 mph - N/A   Clear
11:53 AM 84.0 °F 82.9 °F 55.0 °F 37% 29.81 in 10.0 mi Variable 4.6 mph - N/A   Clear
12:53 PM 89.1 °F 86.9 °F 54.0 °F 30% 29.78 in 10.0 mi Variable 5.8 mph - N/A   Clear
1:53 PM 90.0 °F - 52.0 °F 27% 29.78 in 10.0 mi Calm Calm - N/A   Clear
2:53 PM 93.9 °F - 51.1 °F 23% 29.73 in 10.0 mi ESE 13.8 mph 18.4 mph N/A   Clear
3:53 PM 95.0 °F - 48.9 °F 21% 29.70 in 10.0 mi SE 11.5 mph 17.3 mph N/A   Clear
4:53 PM 93.9 °F - 48.9 °F 21% 29.69 in 10.0 mi Calm Calm - N/A   Clear
5:37 PM 91.4 °F - 51.8 °F 26% 29.96 in 10.0 mi SSE 17.3 mph 24.2 mph N/A Thunderstorm Partly Cloudy
5:53 PM 91.0 °F 88.7 °F 54.0 °F 28% 29.69 in 10.0 mi South 13.8 mph - N/A   Clear
6:53 PM 89.1 °F 86.7 °F 53.1 °F 29% 29.70 in 10.0 mi South 9.2 mph - N/A   Clear
7:53 PM 84.9 °F 83.9 °F 57.0 °F 38% 29.74 in 10.0 mi South 11.5 mph - N/A   Clear
8:53 PM 82.9 °F 82.4 °F 57.0 °F 41% 29.74 in 10.0 mi SSW 16.1 mph - N/A   Clear
9:53 PM 78.1 °F - 57.9 °F 50% 29.80 in 10.0 mi South 16.1 mph 24.2 mph N/A   Partly Cloudy
10:17 PM 77.0 °F - 60.8 °F 57% 30.08 in 10.0 mi South 17.3 mph - N/A Thunderstorm Clear
10:32 PM 75.2 °F - 60.8 °F 61% 30.09 in 10.0 mi South 15.0 mph - N/A   Partly Cloudy
10:53 PM 75.9 °F - 61.0 °F 60% 29.82 in 10.0 mi SSW 9.2 mph - N/A   Mostly Cloudy
11:53 PM 75.0 °F - 62.1 °F 64% 29.83 in 10.0 mi West 9.2 mph - N/A   Partly Cloudy